This demonstration page uses our WeatherBlox Daily Observations layout. Learn more.

Left ArrowRight Arrow

Hourly Observations for January 1, 2022

Temp ( °F °C ) Dew Point ( °F °C ) Humidity (%) Winds ( mph kmh ) Pressure ( in mb ) Visibility ( mi km ) Precip ( " mm )
12:00 am 00:00 Cloudy 64 17.8 64 17.8 100 100 Calm 29.94 1014 10 16 0.00 0.00
12:53 am 00:53 Cloudy 66 18.9 66 18.9 100 100 SW 5 7 29.92 1013 10 16 0.00 0.00
1:41 am 01:41 Cloudy 69 20.6 66 18.9 90 90 SW 7 11 29.91 1013 10 16 0.00 0.00
1:53 am 01:53 Cloudy 69 20.6 66 18.9 90 90 SW 6 9 29.91 1013 10 16 0.00 0.00
2:53 am 02:53 Cloudy 68 20 66 18.9 93 93 SW 8 13 29.90 1013 10 16 0.00 0.00
3:53 am 03:53 Cloudy 70 21.1 66 18.9 87 87 SW 6 9 29.90 1013 10 16 0.00 0.00
4:53 am 04:53 Cloudy 70 21.1 66 18.9 87 87 SSW 6 9 29.88 1012 10 16 0.00 0.00
5:53 am 05:53 Cloudy 70 21.1 66 18.9 87 87 SW 8 13 29.90 1013 10 16 0.00 0.00
6:53 am 06:53 Mostly Cloudy 70 21.1 66 18.9 87 87 SSW 10 17 29.90 1012 10 16 0.00 0.00
7:53 am 07:53 Cloudy 70 21.1 66 18.9 87 87 SSW 7 11 29.91 1013 10 16 0.00 0.00
8:46 am 08:46 Partly Cloudy 71 21.7 66 18.9 84 84 SSW 8 13 29.90 1013 10 16 0.00 0.00
8:53 am 08:53 Partly Cloudy 71 21.7 66 18.9 84 84 SSW 9 15 29.91 1013 10 16 0.00 0.00
9:37 am 09:37 Mostly Cloudy 72 22.2 66 18.9 82 82 SW 13 20 29.91 1013 10 16 0.00 0.00
9:53 am 09:53 Mostly Cloudy 73 22.8 66 18.9 79 79 S 14 22 29.92 1013 10 16 0.00 0.00
10:53 am 10:53 Cloudy 73 22.8 66 18.9 79 79 SSW 14 22 29.91 1013 10 16 0.00 0.00
11:53 am 11:53 Cloudy 71 21.7 68 20 90 90 SW 8 13 29.89 1012 10 16 0.00 0.00
12:53 pm 12:53 Mostly Cloudy 72 22.2 68 20 87 87 SSW 9 15 29.85 1011 10 16 0.00 0.00
1:29 pm 13:29 Mostly Cloudy 75 23.9 67 19.4 76 76 SSW 16 26 29.83 1010 10 16 0.01 0.25
1:53 pm 13:53 Cloudy with Light Rain 75 23.9 65 18.3 71 71 SW 12 19 29.82 1010 10 16 0.01 0.25
2:53 pm 14:53 Partly Cloudy 77 25 64 17.8 64 64 SW 13 20 29.80 1009 10 16 0.00 0.00
3:53 pm 15:53 Mostly Cloudy 77 25 62 16.7 60 60 SSW 13 20 29.78 1008 10 16 0.00 0.00
4:53 pm 16:53 Cloudy 76 24.4 62 16.7 62 62 S 6 9 29.76 1008 10 16 0.00 0.00
5:53 pm 17:53 Cloudy 75 23.9 62 16.7 64 64 SSW 10 17 29.76 1008 10 16 0.00 0.00
6:53 pm 18:53 Cloudy 75 23.9 61 16.1 62 62 SSW 13 20 29.75 1008 10 16 0.00 0.00
7:53 pm 19:53 Cloudy 74 23.3 62 16.7 67 67 SSW 15 24 29.75 1008 10 16 0.00 0.00
8:53 pm 20:53 Cloudy 74 23.3 62 16.7 67 67 SSW 8 13 29.74 1007 10 16 0.00 0.00
9:53 pm 21:53 Cloudy 73 22.8 63 17.2 71 71 SW 14 22 29.74 1007 10 16 0.00 0.00
10:39 pm 22:39 Cloudy 72 22.2 64 17.8 76 76 SSW 13 20 29.74 1007 10 16 0.00 0.00
10:53 pm 22:53 Cloudy 73 22.8 64 17.8 74 74 SSW 13 20 29.74 1007 10 16 0.00 0.00
11:48 pm 23:48 Cloudy 73 23 64 18 74 74 SW 15 24 29.74 1007 10 16 0.01 0.25
11:53 pm 23:53 Cloudy 73 22.8 64 17.8 74 74 SSW 12 19 29.75 1007 10 16 0.01 0.25

Powered by AerisWeather